Welcome to Crazy Orc, l'antre du jeu de rôles à Lyon. Please login or sign up.

10 Décembre 2023 à 18:17:32

Login with username, password and session length

Crazy Orc, l'antre du jeu de rôles à Lyon - Centre de statistiques

Statistiques générales

Total des membres:
738
Total des messages:
98064
Total des sujets:
4257
Total des catégories:
4
Membres en ligne:
144
Connexions simultanées:
808 - 21 Janvier 2020 à 20:55:59
En ligne aujourd'hui:
140
Total des pages vues:
38355764
Moyenne des inscriptions par jour:
0.26
Moyenne des messages par jour:
23.18
Moyenne des sujets par jour:
1.06
Total des sections:
40
Dernier membre:
Omega
Moyenne d'utilisateurs connectés par jour:
51.35
Statistiques des sexes:
Ne pas afficher: 344
Masculin: 331
Féminin: 63
Pages vues en moyenne par jour:
6265.23

Top 10 des posteurs

ManuDevil
7023
GroumpH
5098
nunch
3857
LeDupontesque
3081
jules
3026
Mandy
2883
Scratchy
2766
MAO
2493
snake
1947
Le0
1878

Top lanceurs de sujets

nunch
600
Morithil
418
ManuDevil
292
GroumpH
246
Scratchy
132
MAO
110
LeDupontesque
106
jules
99
snake
92
CCCP
86

Le plus de temps en ligne

Mandy
133 j 19 h 59 m
GroumpH
112 j 9 h 16 m
CCCP
88 j 10 h 46 m
Nukeflow
73 j 8 h 19 m
ManuDevil
69 j 4 h 39 m
Felipe
61 j 12 h 19 m
dao
56 j 17 h 58 m
nunch
49 j 1 h 47 m
Rh
42 j 23 h 32 m
Patate
42 j 22 h 27 m

Les utilisateurs les plus aimés

ManuDevil
64
Arkana31
49
LeDupontesque
20
Morithil
19
DeReel (il)
16
Patate
14
MJulien
12
Lionhell
9
Lightblaste
8
LokiTolmuir
7

Historique du forum (basé sur l'heure interne du forum)

Résumé annuel Nouveaux sujets Nouveaux messages Nouveaux membres Connexions simultanées Pages vues
* 2023 182 1196 122 260 4323239
Décembre 2023 6 26 0 260 451698
Novembre 2023 12 123 14 217 909538
Octobre 2023 21 141 12 187 333148
Septembre 2023 19 182 18 138 366302
Août 2023 8 42 7 130 236673
Juillet 2023 6 39 4 140 269774
Juin 2023 23 109 10 159 303581
Mai 2023 23 124 16 182 262587
Avril 2023 19 159 11 174 284480
Mars 2023 13 86 6 155 330966
Février 2023 13 62 5 165 274947
Janvier 2023 19 103 19 148 299545
* 2022 183 1154 96 261 3778792
Décembre 2022 9 37 1 161 306381
Novembre 2022 16 103 6 261 350274
Octobre 2022 11 120 17 208 290108
Septembre 2022 17 115 6 258 357415
Août 2022 15 108 9 147 318817
2022-08-01 0 0 0 116 6843
2022-08-02 0 0 0 111 9274
2022-08-03 0 0 0 112 7595
2022-08-04 1 5 0 109 6193
2022-08-05 0 0 0 95 6361
2022-08-06 0 1 0 87 5804
2022-08-07 0 3 0 83 11749
2022-08-08 0 0 0 88 15704
2022-08-09 0 1 0 80 9660
2022-08-10 0 0 0 86 9352
2022-08-11 0 4 0 85 8513
2022-08-12 0 0 1 79 8042
2022-08-13 0 0 0 80 6219
2022-08-14 1 2 1 78 5982
2022-08-15 0 0 0 72 8920
2022-08-16 0 1 0 90 5805
2022-08-17 0 2 0 94 6057
2022-08-18 0 10 0 81 8447
2022-08-19 0 3 0 82 11675
2022-08-20 0 0 0 98 10849
2022-08-21 8 9 1 103 11267
2022-08-22 0 4 1 147 11819
2022-08-23 0 8 1 98 16038
2022-08-24 1 11 1 109 12745
2022-08-25 0 8 1 118 12740
2022-08-26 0 3 0 114 13536
2022-08-27 2 11 1 125 16331
2022-08-28 1 6 1 113 16216
2022-08-29 1 4 0 116 15342
2022-08-30 0 8 0 113 12550
2022-08-31 0 4 0 107 11189
Juillet 2022 13 69 4 208 308045
Juin 2022 14 76 4 62 333112
Mai 2022 16 118 8 91 339244
Avril 2022 18 133 12 61 254691
Mars 2022 15 123 8 65 281935
Février 2022 17 84 9 58 314588
Janvier 2022 22 68 12 70 324182
* 2021 129 756 53 338 4376522
Décembre 2021 8 37 0 129 661064
Novembre 2021 13 99 4 153 262314
Octobre 2021 20 208 15 159 298103
Septembre 2021 24 171 10 280 285455
Août 2021 11 33 7 73 231609
Juillet 2021 6 8 2 81 305173
Juin 2021 17 31 2 135 311168
Mai 2021 3 31 4 268 597777
Avril 2021 10 51 6 287 308355
2021-04-01 1 5 1 73 10500
2021-04-02 0 2 0 71 8047
2021-04-03 0 0 0 59 7541
2021-04-04 1 3 1 56 9206
2021-04-05 0 0 0 59 8809
2021-04-06 0 1 0 59 6737
2021-04-07 0 4 0 63 6731
2021-04-08 0 0 0 64 9161
2021-04-09 0 0 0 65 8780
2021-04-10 0 0 0 64 8686
2021-04-11 0 1 0 59 9738
2021-04-12 0 2 0 63 9761
2021-04-13 1 3 1 71 11667
2021-04-14 0 4 0 287 14963
2021-04-15 0 0 0 74 11393
2021-04-16 0 2 0 68 9533
2021-04-17 0 0 0 68 7869
2021-04-18 0 0 0 73 6458
2021-04-19 0 1 0 67 6158
2021-04-20 3 3 1 76 9885
2021-04-21 1 8 1 91 8256
2021-04-22 0 5 0 132 10159
2021-04-23 0 0 0 145 14980
2021-04-24 1 1 0 132 12209
2021-04-25 0 2 0 142 12832
2021-04-26 1 2 0 116 9593
2021-04-27 0 1 0 118 9289
2021-04-28 0 0 1 107 12148
2021-04-29 0 0 0 107 9489
2021-04-30 1 1 0 104 27777
Mars 2021 7 24 1 308 444900
2021-03-01 0 0 0 72 8645
2021-03-02 1 2 0 62 7066
2021-03-03 0 1 0 58 5404
2021-03-04 0 0 1 61 5201
2021-03-05 0 0 0 63 8432
2021-03-06 0 0 0 60 4862
2021-03-07 0 1 0 50 4615
2021-03-08 0 0 0 55 4461
2021-03-09 0 0 0 58 6240
2021-03-10 0 0 0 65 8568
2021-03-11 1 3 0 62 4993
2021-03-12 0 1 0 55 5378
2021-03-13 0 0 0 60 4371
2021-03-14 0 1 0 65 5377
2021-03-15 1 1 0 69 7164
2021-03-16 0 1 0 98 8406
2021-03-17 1 6 0 308 16132
2021-03-18 0 0 0 75 162827
2021-03-19 0 0 0 83 38605
2021-03-20 0 2 0 68 10275
2021-03-21 0 0 0 72 11763
2021-03-22 0 0 0 54 8930
2021-03-23 0 0 0 94 11374
2021-03-24 0 0 0 97 12163
2021-03-25 0 0 0 117 11569
2021-03-26 0 1 0 127 11884
2021-03-27 0 1 0 104 7707
2021-03-28 0 0 0 89 8951
2021-03-29 0 0 0 77 10399
2021-03-30 0 0 0 73 11056
2021-03-31 3 3 0 77 12082
Février 2021 5 29 2 338 223056
Janvier 2021 5 34 0 322 447548
2021-01-01 0 0 0 65 8853
2021-01-02 0 0 0 61 7510
2021-01-03 0 0 0 56 8223
2021-01-04 2 2 0 67 8142
2021-01-05 0 3 0 56 8281
2021-01-06 0 4 0 55 5830
2021-01-07 0 2 0 55 4092
2021-01-08 0 2 0 53 3871
2021-01-09 0 0 0 70 5919
2021-01-10 0 0 0 78 9200
2021-01-11 1 2 0 66 7730
2021-01-12 0 1 0 71 7978
2021-01-13 0 1 0 64 8287
2021-01-14 0 2 0 80 7890
2021-01-15 0 0 0 85 9193
2021-01-16 0 0 0 83 10085
2021-01-17 0 3 0 81 9818
2021-01-18 0 5 0 82 10941
2021-01-19 1 1 0 86 9009
2021-01-20 0 2 0 322 13536
2021-01-21 0 1 0 81 24497
2021-01-22 0 0 0 79 141457
2021-01-23 0 0 0 85 10393
2021-01-24 0 0 0 84 11242
2021-01-25 1 1 0 80 10151
2021-01-26 0 0 0 93 10012
2021-01-27 0 1 0 88 10831
2021-01-28 0 0 0 87 11541
2021-01-29 0 1 0 81 9358
2021-01-30 0 0 0 72 23925
2021-01-31 0 0 0 67 19753
* 2020 206 1716 105 808 4713463
Décembre 2020 6 38 2 320 310487
Novembre 2020 12 97 3 352 464426
Octobre 2020 21 169 7 346 497422
Septembre 2020 30 356 15 133 325183
Août 2020 16 147 7 163 471897
2020-08-01 0 0 1 125 9376
2020-08-02 0 0 1 127 10771
2020-08-03 2 4 0 135 9364
2020-08-04 0 0 0 163 13035
2020-08-05 0 5 1 160 20546
2020-08-06 0 2 0 131 12711
2020-08-07 0 0 0 119 12203
2020-08-08 0 0 0 103 12458
2020-08-09 0 2 0 87 11220
2020-08-10 0 1 0 81 10362
2020-08-11 0 1 0 83 14026
2020-08-12 0 3 0 87 134172
2020-08-13 0 5 0 103 10481
2020-08-14 0 3 0 97 13299
2020-08-15 2 3 0 96 8890
2020-08-16 3 6 1 82 8258
2020-08-17 0 11 0 85 9541
2020-08-18 0 6 0 91 10678
2020-08-19 0 5 0 84 11112
2020-08-20 1 15 1 78 11469
2020-08-21 0 7 0 84 11326
2020-08-22 0 5 0 83 11201
2020-08-23 1 3 0 71 10011
2020-08-24 3 8 0 82 10392
2020-08-25 0 2 0 95 9967
2020-08-26 0 5 0 92 10480
2020-08-27 2 9 0 92 12374
2020-08-28 1 12 1 95 9959
2020-08-29 0 9 1 90 9439
2020-08-30 0 8 0 104 10776
2020-08-31 1 7 0 137 12000
Juillet 2020 16 77 2 100 345760
2020-07-01 0 3 0 53 15128
2020-07-02 0 0 0 50 14023
2020-07-03 0 0 0 54 10055
2020-07-04 0 1 0 54 7181
2020-07-05 1 2 0 53 7390
2020-07-06 2 4 0 53 12535
2020-07-07 0 0 0 57 13793
2020-07-08 1 3 1 56 12452
2020-07-09 1 5 0 96 12087
2020-07-10 0 5 0 98 12988
2020-07-11 0 0 0 88 11107
2020-07-12 0 2 0 83 8142
2020-07-13 0 4 0 76 10295
2020-07-14 1 2 0 78 11064
2020-07-15 2 3 0 76 12030
2020-07-16 1 13 0 84 10150
2020-07-17 0 2 0 65 10880
2020-07-18 0 1 0 68 11217
2020-07-19 0 1 0 74 13216
2020-07-20 1 6 1 100 12998
2020-07-21 0 6 0 93 11786
2020-07-22 3 6 0 73 9832
2020-07-23 1 1 0 78 11746
2020-07-24 0 1 0 90 11406
2020-07-25 0 1 0 83 9782
2020-07-26 0 0 0 93 11234
2020-07-27 2 3 0 93 9667
2020-07-28 0 0 0 98 10158
2020-07-29 0 1 0 94 10268
2020-07-30 0 1 0 93 11155
2020-07-31 0 0 0 88 9995
Juin 2020 17 60 5 127 452817
2020-06-01 0 1 0 97 7843
2020-06-02 7 8 0 99 6624
2020-06-03 0 0 0 116 9483
2020-06-04 0 0 0 127 10949
2020-06-05 0 0 0 54 8472
2020-06-06 0 0 0 60 11941
2020-06-07 0 3 0 60 62107
2020-06-08 0 1 1 59 116791
2020-06-09 0 1 0 67 15021
2020-06-10 2 6 0 51 11623
2020-06-11 0 0 0 50 8819
2020-06-12 0 0 0 54 9812
2020-06-13 0 0 1 57 9517
2020-06-14 0 1 0 54 10890
2020-06-15 2 5 0 50 11230
2020-06-16 0 3 0 66 11587
2020-06-17 0 0 1 53 7877
2020-06-18 0 0 0 53 7889
2020-06-19 0 0 0 47 8061
2020-06-20 0 1 0 49 10663
2020-06-21 0 0 0 49 8505
2020-06-22 0 2 0 51 8058
2020-06-23 0 1 0 50 9272
2020-06-24 1 7 1 59 9508
2020-06-25 0 4 0 53 9909
2020-06-26 0 1 0 53 10161
2020-06-27 0 0 1 58 11373
2020-06-28 0 0 0 63 8637
2020-06-29 5 12 0 67 8575
2020-06-30 0 3 0 56 11620
Mai 2020 7 22 3 295 321652
Avril 2020 10 47 1 189 300030
Mars 2020 24 253 3 199 467854
2020-03-01 0 7 0 104 10346
2020-03-02 0 5 0 126 6471
2020-03-03 3 17 1 107 4913
2020-03-04 0 10 0 116 5122
2020-03-05 1 12 0 143 8779
2020-03-06 0 9 0 144 11988
2020-03-07 0 2 0 123 11124
2020-03-08 0 5 0 122 13134
2020-03-09 0 10 0 117 13459
2020-03-10 2 5 0 114 11164
2020-03-11 0 4 0 105 8274
2020-03-12 0 10 0 199 11093
2020-03-13 0 9 0 186 12284
2020-03-14 1 11 0 189 12386
2020-03-15 1 12 1 189 11665
2020-03-16 1 3 0 173 10318
2020-03-17 0 8 0 116 9643
2020-03-18 0 2 0 107 8287
2020-03-19 0 4 0 105 10639
2020-03-20 0 0 0 116 10883
2020-03-21 0 4 0 114 10354
2020-03-22 0 0 0 119 9230
2020-03-23 3 9 0 112 6679
2020-03-24 0 7 0 113 47441
2020-03-25 0 10 0 107 140101
2020-03-26 5 9 0 119 6876
2020-03-27 1 6 0 154 6818
2020-03-28 1 16 0 114 7190
2020-03-29 2 20 0 105 6840
2020-03-30 1 13 0 121 11552
2020-03-31 2 14 1 117 12801
Février 2020 18 171 9 323 281798
Janvier 2020 29 279 48 808 474137
* 2019 246 3411 313 446 3308531
Décembre 2019 18 159 26 446 351248
Novembre 2019 16 245 33 325 524135
2019-11-01 1 5 3 104 6570
2019-11-02 0 8 0 112 5937
2019-11-03 5 17 2 103 5135
2019-11-04 0 13 4 108 4364
2019-11-05 1 7 1 101 4644
2019-11-06 0 19 0 100 7049
2019-11-07 0 16 0 107 5602
2019-11-08 0 7 2 100 5473
2019-11-09 0 10 2 115 4378
2019-11-10 0 14 1 113 5596
2019-11-11 2 6 0 98 4288
2019-11-12 0 12 0 131 4467
2019-11-13 0 9 1 114 5320
2019-11-14 1 6 1 125 6683
2019-11-15 1 13 1 120 4926
2019-11-16 0 8 0 163 6256
2019-11-17 0 3 0 134 5852
2019-11-18 0 1 1 107 5431
2019-11-19 0 9 4 99 4758
2019-11-20 1 11 1 102 3814
2019-11-21 0 6 0 117 9376
2019-11-22 0 8 0 112 11663
2019-11-23 0 6 0 101 8399
2019-11-24 0 4 1 109 9641
2019-11-25 0 2 2 112 8759
2019-11-26 2 2 0 114 56347
2019-11-27 2 6 1 111 123100
2019-11-28 0 3 1 112 10114
2019-11-29 0 8 2 110 67835
2019-11-30 0 6 2 325 112358
Octobre 2019 24 272 59 121 189762
Septembre 2019 25 386 54 141 376708
Août 2019 22 257 31 122 225760
Juillet 2019 24 281 62 149 190301
Juin 2019 11 171 3 112 246519
2019-06-01 0 1 0 103 2817
2019-06-02 0 1 0 97 2941
2019-06-03 0 3 0 91 6524
2019-06-04 0 14 0 87 11150
2019-06-05 0 8 0 90 9570
2019-06-06 0 5 0 99 10447
2019-06-07 1 16 1 109 8522
2019-06-08 0 5 1 93 5588
2019-06-09 0 8 0 92 4131
2019-06-10 1 8 0 93 4120
2019-06-11 1 5 1 105 29392
2019-06-12 0 4 0 102 13902
2019-06-13 0 1 0 98 5417
2019-06-14 0 5 0 104 10181
2019-06-15 0 0 0 99 11438
2019-06-16 0 4 0 93 9146
2019-06-17 1 3 0 99 7622
2019-06-18 0 0 0 104 9803
2019-06-19 2 4 0 102 8936
2019-06-20 0 2 0 106 7574
2019-06-21 0 5 0 100 7703
2019-06-22 0 6 0 103 7936
2019-06-23 0 9 0 108 6964
2019-06-24 4 13 0 102 5006
2019-06-25 0 4 0 103 3748
2019-06-26 0 6 0 112 7551
2019-06-27 0 10 0 104 6651
2019-06-28 0 10 0 93 7044
2019-06-29 0 3 0 100 8017
2019-06-30 1 8 0 102 6678
Mai 2019 23 311 10 167 218891
2019-05-01 0 0 0 42 7579
2019-05-02 1 11 0 51 5081
2019-05-03 1 30 0 46 4550
2019-05-04 2 30 2 68 9688
2019-05-05 2 23 0 62 9610
2019-05-06 0 14 0 63 6169
2019-05-07 0 7 0 52 3798
2019-05-08 1 9 0 91 6925
2019-05-09 1 9 1 98 10005
2019-05-10 1 8 1 45 9905
2019-05-11 7 14 0 46 10729
2019-05-12 0 10 1 136 10508
2019-05-13 1 10 0 167 10276
2019-05-14 0 1 1 165 13350
2019-05-15 0 11 1 129 11534
2019-05-16 0 18 0 132 11759
2019-05-17 0 8 0 99 8749
2019-05-18 1 12 0 104 3904
2019-05-19 1 4 0 27 2513
2019-05-20 2 14 1 30 3181
2019-05-21 0 11 0 29 2830
2019-05-22 0 8 0 121 4397
2019-05-23 0 10 0 120 5497
2019-05-24 0 3 0 115 10400
2019-05-25 0 10 0 104 7847
2019-05-26 0 5 0 102 6183
2019-05-27 2 9 0 107 8783
2019-05-28 0 8 0 98 4284
2019-05-29 0 2 1 102 3072
2019-05-30 0 0 0 91 2845
2019-05-31 0 2 1 93 2940
Avril 2019 21 294 9 174 311459
2019-04-01 1 11 0 174 7945
2019-04-02 3 24 0 122 7494
2019-04-03 1 14 0 142 9858
2019-04-04 0 8 0 139 10089
2019-04-05 0 2 0 133 12161
2019-04-06 1 12 1 133 7608
2019-04-07 0 6 0 120 7430
2019-04-08 1 14 1 135 8563
2019-04-09 0 13 0 137 16179
2019-04-10 2 17 0 144 19838
2019-04-11 1 14 1 138 21613
2019-04-12 0 14 0 119 19438
2019-04-13 1 11 3 51 7170
2019-04-14 0 4 0 64 8623
2019-04-15 0 0 0 61 10243
2019-04-16 0 1 0 55 8411
2019-04-17 0 2 0 72 6278
2019-04-18 1 9 0 62 9286
2019-04-19 2 8 0 70 7179
2019-04-20 0 5 0 129 4258
2019-04-21 0 11 1 152 3979
2019-04-22 2 7 0 170 5151
2019-04-23 0 9 0 59 8482
2019-04-24 0 17 0 78 9241
2019-04-25 1 13 2 57 13826
2019-04-26 0 6 0 58 15753
2019-04-27 0 2 0 47 12881
2019-04-28 3 17 0 58 10108
2019-04-29 1 20 0 57 11176
2019-04-30 0 3 0 58 11198
Mars 2019 22 372 16 142 344146
Février 2019 18 288 4 110 142132
2019-02-01 1 22 0 98 4055
2019-02-02 1 7 0 98 9323
2019-02-03 2 8 0 106 10729
2019-02-04 0 11 0 104 6293
2019-02-05 0 10 0 85 1711
2019-02-06 0 6 0 85 3018
2019-02-07 0 13 0 90 2793
2019-02-08 0 19 0 86 3074
2019-02-09 0 4 0 83 2745
2019-02-10 0 4 0 89 3245
2019-02-11 0 1 0 76 1985
2019-02-12 0 6 0 79 2434
2019-02-13 0 2 0 83 2736
2019-02-14 0 3 0 72 2494
2019-02-15 1 6 0 79 5880
2019-02-16 2 17 0 86 8424
2019-02-17 2 16 1 105 10226
2019-02-18 5 10 0 96 10597
2019-02-19 0 9 0 102 8445
2019-02-20 0 8 0 104 11557
2019-02-21 0 5 0 96 5694
2019-02-22 0 19 0 110 5265
2019-02-23 1 14 0 96 4284
2019-02-24 2 18 0 100 4059
2019-02-25 0 3 2 97 3055
2019-02-26 1 18 0 101 2711
2019-02-27 0 8 0 100 2345
2019-02-28 0 21 1 103 2955
Janvier 2019 22 375 6 113 187470
* 2018 338 6176 81 641 2624946
Décembre 2018 43 306 8 253 421582
Novembre 2018 26 467 9 641 383363
2018-11-01 1 9 1 134 8941
2018-11-02 0 12 0 138 13320
2018-11-03 1 7 1 144 15011
2018-11-04 5 36 0 176 20866
2018-11-05 2 19 0 163 16221
2018-11-06 1 18 1 130 15015
2018-11-07 0 18 0 239 17530
2018-11-08 1 13 1 200 11015
2018-11-09 0 18 0 265 17559
2018-11-10 1 13 1 262 23662
2018-11-11 0 10 0 161 21706
2018-11-12 1 22 0 274 33147
2018-11-13 0 25 0 425 19047
2018-11-14 1 18 1 550 12156
2018-11-15 1 8 1 641 16863
2018-11-16 1 14 0 168 16611
2018-11-17 0 5 1 577 19696
2018-11-18 0 5 0 184 9470
2018-11-19 1 10 1 373 15763
2018-11-20 1 23 0 257 11354
2018-11-21 2 8 0 110 5798
2018-11-22 0 9 0 89 5367
2018-11-23 1 22 0 92 4528
2018-11-24 1 21 0 30 2309
2018-11-25 2 13 0 43 4520
2018-11-26 2 26 0 34 2339
2018-11-27 0 21 0 42 2307
2018-11-28 0 20 0 116 5597
2018-11-29 0 9 0 117 6218
2018-11-30 0 15 0 109 9427
Octobre 2018 34 527 6 321 248725
Septembre 2018 34 641 10 127 216306
Août 2018 32 583 16 101 188648
2018-08-01 0 26 0 98 6784
2018-08-02 0 29 0 101 6795
2018-08-03 0 11 0 93 6370
2018-08-04 5 19 1 90 6653
2018-08-05 4 23 0 93 6519
2018-08-06 0 24 0 95 6142
2018-08-07 2 23 1 94 5013
2018-08-08 0 18 0 93 6325
2018-08-09 1 9 0 98 6608
2018-08-10 1 13 1 101 6723
2018-08-11 0 17 1 94 6721
2018-08-12 1 9 2 92 6116
2018-08-13 2 19 0 93 6356
2018-08-14 0 5 0 90 6043
2018-08-15 1 16 0 93 6200
2018-08-16 1 34 0 89 6859
2018-08-17 0 25 0 86 5971
2018-08-18 0 27 1 90 6101
2018-08-19 4 24 0 94 6672
2018-08-20 0 10 1 83 6150
2018-08-21 1 9 2 93 5405
2018-08-22 1 24 0 90 4343
2018-08-23 3 23 3 89 5993
2018-08-24 1 54 3 92 7389
2018-08-25 0 13 0 84 5312
2018-08-26 0 3 0 83 5702
2018-08-27 0 9 0 82 5196
2018-08-28 2 10 0 84 5401
2018-08-29 1 8 0 82 4297
2018-08-30 1 19 0 27 4663
2018-08-31 0 30 0 22 7826
Juillet 2018 21 386 3 104 182475
Juin 2018 31 442 3 110 213303
Mai 2018 21 422 4 107 174393
Avril 2018 25 564 5 104 159849
2018-04-01 5 38 1 78 19803
2018-04-02 1 37 0 81 4900
2018-04-03 0 28 0 80 4480
2018-04-04 1 26 0 88 4206
2018-04-05 3 35 0 84 4988
2018-04-06 0 18 0 82 4984
2018-04-07 0 8 0 86 4144
2018-04-08 2 17 0 90 4595
2018-04-09 0 32 0 83 4451
2018-04-10 0 21 0 84 4551
2018-04-11 0 12 0 93 4320
2018-04-12 0 21 0 104 5608
2018-04-13 1 10 0 85 4997
2018-04-14 2 39 1 91 4749
2018-04-15 2 21 0 92 5393
2018-04-16 1 13 0 92 5327
2018-04-17 0 9 0 88 4518
2018-04-18 0 12 1 89 4185
2018-04-19 0 7 0 16 1456
2018-04-20 0 6 0 82 2948
2018-04-21 0 6 0 81 4974
2018-04-22 0 3 0 83 4887
2018-04-23 2 9 0 85 5259
2018-04-24 3 20 0 82 4998
2018-04-25 0 16 1 81 5180
2018-04-26 0 11 0 78 4558
2018-04-27 1 23 1 86 10368
2018-04-28 0 26 0 88 5449
2018-04-29 1 20 0 86 4042
2018-04-30 0 20 0 99 5531
Mars 2018 20 634 4 96 152933
2018-03-01 0 7 0 20 8226
2018-03-02 0 23 0 16 1189
2018-03-03 0 28 0 19 1566
2018-03-04 1 44 0 21 1915
2018-03-05 0 11 0 17 1328
2018-03-06 0 10 0 75 1912
2018-03-07 1 21 0 89 4461
2018-03-08 0 18 0 83 4381
2018-03-09 0 14 0 94 4761
2018-03-10 0 22 0 87 5080
2018-03-11 1 24 0 90 6619
2018-03-12 4 69 2 79 4642
2018-03-13 2 36 1 88 5239
2018-03-14 1 25 0 90 4987
2018-03-15 2 9 0 81 4572
2018-03-16 0 7 0 77 4268
2018-03-17 0 9 0 81 4271
2018-03-18 0 13 0 91 4435
2018-03-19 2 12 0 79 4301
2018-03-20 0 30 0 87 4317
2018-03-21 0 7 0 86 4027
2018-03-22 1 19 0 84 4514
2018-03-23 0 14 0 91 4486
2018-03-24 0 6 0 81 4292
2018-03-25 0 11 0 78 4516
2018-03-26 2 16 0 86 4584
2018-03-27 0 7 0 80 4375
2018-03-28 0 22 0 80 4705
2018-03-29 0 27 0 79 4483
2018-03-30 1 40 1 82 4671
2018-03-31 2 33 0 96 25810
Février 2018 25 631 7 93 121912
Janvier 2018 26 573 6 94 161457
* 2017 346 6100 56 180 1675168
Décembre 2017 37 499 6 91 136063
Novembre 2017 37 675 6 93 169670
Octobre 2017 15 426 2 93 151449
Septembre 2017 28 548 5 94 135543
Août 2017 29 384 6 99 148097
Juillet 2017 25 490 5 87 176472
2017-07-01 0 15 0 70 4062
2017-07-02 0 3 1 65 3539
2017-07-03 1 23 1 62 3836
2017-07-04 1 26 0 72 3952
2017-07-05 1 10 0 61 4350
2017-07-06 1 29 0 87 4569
2017-07-07 0 20 1 77 4031
2017-07-08 1 22 0 69 5874
2017-07-09 0 19 0 69 7487
2017-07-10 0 17 0 72 5879
2017-07-11 1 4 0 67 7492
2017-07-12 0 5 0 71 6813
2017-07-13 1 4 0 79 25553
2017-07-14 0 5 0 87 5690
2017-07-15 0 5 0 72 4170
2017-07-16 2 18 0 78 4326
2017-07-17 5 25 0 73 4689
2017-07-18 0 17 1 76 4440
2017-07-19 1 19 0 83 3965
2017-07-20 0 12 0 76 4047
2017-07-21 1 19 1 75 5666
2017-07-22 1 10 0 72 4430
2017-07-23 2 22 0 77 5427
2017-07-24 0 21 0 83 6448
2017-07-25 1 16 0 69 4956
2017-07-26 3 31 0 84 5953
2017-07-27 0 21 0 75 5107
2017-07-28 0 12 0 70 6063
2017-07-29 0 18 0 72 5667
2017-07-30 1 9 0 67 4294
2017-07-31 1 13 0 68 3697
Juin 2017 33 603 4 89 156248
Mai 2017 26 470 2 99 181189
Avril 2017 31 490 5 180 139896
Mars 2017 27 432 3 119 90981
2017-03-01 1 13 0 20 1366
2017-03-02 1 7 1 15 939
2017-03-03 4 15 0 16 1322
2017-03-04 1 4 1 14 1224
2017-03-05 0 11 0 14 760
2017-03-06 1 36 1 17 1184
2017-03-07 0 14 0 18 1120
2017-03-08 2 22 0 19 1229
2017-03-09 1 23 0 15 1153
2017-03-10 0 22 0 15 1149
2017-03-11 0 15 0 16 1171
2017-03-12 3 16 0 91 4295
2017-03-13 0 14 0 91 4471
2017-03-14 1 18 0 79 3743
2017-03-15 0 9 0 71 3377
2017-03-16 1 16 0 70 3703
2017-03-17 0 8 0 73 3263
2017-03-18 0 13 0 64 3669
2017-03-19 0 9 0 92 3639
2017-03-20 0 11 0 90 4905
2017-03-21 2 6 0 83 5720
2017-03-22 2 14 0 95 4760
2017-03-23 1 9 0 66 6486
2017-03-24 2 12 0 65 2928
2017-03-25 0 15 0 67 3275
2017-03-26 2 8 0 55 1890
2017-03-27 0 16 0 119 3309
2017-03-28 1 17 0 87 4615
2017-03-29 0 20 0 86 4109
2017-03-30 1 7 0 69 3543
2017-03-31 0 12 0 73 2664
Février 2017 31 587 7 87 74924
Janvier 2017 27 496 5 80 114636
* 2016 389 7721 79 245 2075605
Décembre 2016 34 533 2 170 118206
Novembre 2016 34 586 6 245 122991
Octobre 2016 43 726 7 191 160217
Septembre 2016 26 657 9 85 157449
Août 2016 31 721 9 114 169873
Juillet 2016 19 513 3 58 166690
Juin 2016 30 565 5 53 211715
Mai 2016 40 1116 8 94 166514
Avril 2016 27 529 7 65 155208
2016-04-01 3 38 2 30 3618
2016-04-02 0 23 1 23 3917
2016-04-03 3 45 1 65 6292
2016-04-04 3 45 0 31 4738
2016-04-05 0 6 0 26 3350
2016-04-06 0 15 0 22 4462
2016-04-07 1 13 1 21 3485
2016-04-08 0 9 0 23 3328
2016-04-09 2 17 0 24 3870
2016-04-10 0 13 0 25 4267
2016-04-11 0 19 0 55 6024
2016-04-12 1 16 0 59 14106
2016-04-13 4 14 0 59 11237
2016-04-14 0 14 0 52 5426
2016-04-15 1 14 0 20 3457
2016-04-16 0 7 0 50 5198
2016-04-17 0 2 0 49 5204
2016-04-18 1 17 1 20 4013
2016-04-19 0 11 1 20 3807
2016-04-20 1 17 0 23 3488
2016-04-21 0 16 0 25 3419
2016-04-22 0 21 0 37 4063
2016-04-23 0 8 0 36 4166
2016-04-24 1 14 0 37 5654
2016-04-25 2 25 0 65 6602
2016-04-26 0 16 0 63 5983
2016-04-27 0 20 0 49 6244
2016-04-28 1 12 0 54 6223
2016-04-29 3 29 0 22 4065
2016-04-30 0 13 0 56 5502
Mars 2016 35 513 11 88 224056
Février 2016 35 640 4 96 192454
Janvier 2016 35 622 8 95 230232
* 2015 373 6684 79 100 1549803
Décembre 2015 28 499 7 68 140303
Novembre 2015 40 724 5 35 146607
Octobre 2015 32 760 10 84 227528
2015-10-01 1 18 0 82 8525
2015-10-02 1 10 0 80 4829
2015-10-03 0 7 0 13 2541
2015-10-04 0 7 0 74 5391
2015-10-05 3 45 2 39 10558
2015-10-06 4 42 1 84 20928
2015-10-07 0 30 0 79 21334
2015-10-08 0 12 0 39 12723
2015-10-09 1 14 2 22 4574
2015-10-10 0 8 0 80 5752
2015-10-11 1 36 0 23 4613
2015-10-12 3 25 0 23 3928
2015-10-13 0 35 0 20 3575
2015-10-14 3 25 0 79 9055
2015-10-15 1 32 0 22 7638
2015-10-16 1 43 0 82 8658
2015-10-17 0 34 0 62 6865
2015-10-18 2 31 0 66 5798
2015-10-19 0 21 0 73 5660
2015-10-20 1 29 0 23 4062
2015-10-21 0 22 0 28 20035
2015-10-22 1 22 1 27 6384
2015-10-23 2 15 0 25 6058
2015-10-24 2 27 2 26 4323
2015-10-25 0 11 0 32 4915
2015-10-26 2 22 0 31 4192
2015-10-27 0 26 1 41 5915
2015-10-28 1 28 0 41 5310
2015-10-29 2 29 0 21 4485
2015-10-30 0 38 0 23 4216
2015-10-31 0 16 1 27 4688
Septembre 2015 40 948 13 100 169012
Août 2015 36 566 12 61 119954
2015-08-01 2 13 0 18 2717
2015-08-02 0 7 0 13 2055
2015-08-03 7 20 2 15 2199
2015-08-04 1 9 0 40 3590
2015-08-05 0 13 0 16 2911
2015-08-06 0 5 0 14 2574
2015-08-07 0 22 0 17 3967
2015-08-08 0 14 0 17 3023
2015-08-09 5 32 1 18 2992
2015-08-10 2 30 1 17 4088
2015-08-11 1 16 1 15 2652
2015-08-12 3 23 0 16 2544
2015-08-13 0 7 0 14 2436
2015-08-14 0 8 0 55 4945
2015-08-15 1 11 0 52 4116
2015-08-16 0 12 0 13 2678
2015-08-17 0 2 0 54 3352
2015-08-18 0 6 0 49 3473
2015-08-19 0 2 0 29 2985
2015-08-20 1 13 1 19 3315
2015-08-21 0 13 0 54 5973
2015-08-22 0 4 0 13 4672
2015-08-23 3 21 1 21 3708
2015-08-24 2 33 2 19 4048
2015-08-25 1 46 1 25 5182
2015-08-26 0 17 0 18 5281
2015-08-27 0 23 0 28 5761
2015-08-28 1 44 1 17 5899
2015-08-29 0 37 0 43 5544
2015-08-30 1 26 1 43 3953
2015-08-31 5 37 0 61 7321
Juillet 2015 29 462 7 31 89666
2015-07-01 0 4 0 13 1257
2015-07-02 1 2 0 14 1570
2015-07-03 3 24 0 19 2798
2015-07-04 0 8 0 18 2278
2015-07-05 0 18 2 17 3771
2015-07-06 3 52 0 23 5662
2015-07-07 0 9 0 19 4584
2015-07-08 0 10 0 18 3475
2015-07-09 2 21 0 16 2090
2015-07-10 0 7 0 18 2685
2015-07-11 0 9 0 16 2150
2015-07-12 0 17 0 21 2665
2015-07-13 0 12 0 21 3531
2015-07-14 1 11 0 19 5009
2015-07-15 2 17 0 19 5094
2015-07-16 1 20 0 18 4130
2015-07-17 0 11 0 18 3208
2015-07-18 2 15 1 21 3167
2015-07-19 0 22 0 16 2520
2015-07-20 0 13 0 16 2374
2015-07-21 0 8 1 18 2140
2015-07-22 1 19 0 14 2340
2015-07-23 5 18 1 19 2644
2015-07-24 2 29 1 19 2376
2015-07-25 1 26 0 20 2151
2015-07-26 1 15 0 31 2342
2015-07-27 2 8 1 17 1660
2015-07-28 0 16 0 14 2104
2015-07-29 0 8 0 13 2648
2015-07-30 2 6 0 17 2245
2015-07-31 0 7 0 15 2998
Juin 2015 24 453 5 30 112317
Mai 2015 30 390 2 24 73874
Avril 2015 29 408 4 25 95371
2015-04-01 1 15 0 20 2794
2015-04-02 1 21 0 16 2834
2015-04-03 0 14 0 17 2508
2015-04-04 0 8 0 15 1598
2015-04-05 0 4 0 16 4225
2015-04-06 1 5 0 22 4037
2015-04-07 1 8 0 17 3300
2015-04-08 0 16 0 22 2846
2015-04-09 0 3 0 18 3300
2015-04-10 2 18 0 22 3304
2015-04-11 1 19 1 18 3102
2015-04-12 0 7 1 12 2663
2015-04-13 1 10 0 14 3621
2015-04-14 0 16 0 25 2946
2015-04-15 0 5 0 17 2800
2015-04-16 0 3 0 19 3815
2015-04-17 1 9 0 16 3313
2015-04-18 0 11 0 16 3035
2015-04-19 0 5 0 16 4184
2015-04-20 1 8 0 16 2818
2015-04-21 0 1 0 18 2616
2015-04-22 1 13 0 18 2909
2015-04-23 0 19 0 24 4246
2015-04-24 0 18 0 18 3149
2015-04-25 8 32 1 17 3211
2015-04-26 4 35 0 20 3250
2015-04-27 3 35 0 18 3609
2015-04-28 0 6 0 13 3318
2015-04-29 2 23 1 16 3839
2015-04-30 1 21 0 16 2181
Mars 2015 38 550 7 37 130116
2015-03-01 6 23 0 17 2804
2015-03-02 1 11 0 19 6535
2015-03-03 1 24 0 20 7827
2015-03-04 1 8 0 21 6847
2015-03-05 2 12 0 18 4653
2015-03-06 2 23 1 37 2453
2015-03-07 0 10 0 14 2686
2015-03-08 0 19 0 14 2573
2015-03-09 1 20 0 16 2393
2015-03-10 1 14 1 14 2610
2015-03-11 0 8 0 20 2571
2015-03-12 1 14 0 18 2502
2015-03-13 0 16 0 20 3764
2015-03-14 0 8 0 20 4537
2015-03-15 3 22 1 19 5142
2015-03-16 0 8 0 14 2163
2015-03-17 0 16 0 15 1726
2015-03-18 0 2 0 14 1638
2015-03-19 2 12 0 21 4946
2015-03-20 2 14 1 21 7189
2015-03-21 2 27 1 20 9145
2015-03-22 1 11 0 27 8492
2015-03-23 6 18 1 21 6865
2015-03-24 1 23 1 17 4732
2015-03-25 0 36 0 24 3346
2015-03-26 1 33 0 19 3386
2015-03-27 0 12 0 18 3367
2015-03-28 0 8 0 20 4407
2015-03-29 4 47 0 17 4241
2015-03-30 0 38 0 15 2577
2015-03-31 0 13 0 24 1999
Février 2015 15 434 2 24 123854
Janvier 2015 32 490 5 44 121201
* 2014 428 7364 58 58 2478164
Décembre 2014 24 360 4 33 191610
Novembre 2014 37 572 7 46 525858
2014-11-01 0 10 0 39 31767
2014-11-02 4 28 1 38 30905
2014-11-03 2 15 1 46 35171
2014-11-04 0 10 0 45 33110
2014-11-05 1 19 0 42 33257
2014-11-06 1 32 0 37 27962
2014-11-07 3 33 0 40 33652
2014-11-08 2 9 0 45 28231
2014-11-09 1 24 0 32 22476
2014-11-10 0 24 0 45 25456
2014-11-11 0 29 0 35 24461
2014-11-12 0 13 0 34 21316
2014-11-13 0 10 0 27 13857
2014-11-14 0 11 0 28 11982
2014-11-15 2 21 0 34 10235
2014-11-16 1 26 0 27 8102
2014-11-17 2 16 0 25 10338
2014-11-18 1 10 0 25 9298
2014-11-19 0 8 0 25 10140
2014-11-20 4 18 0 24 9332
2014-11-21 0 12 1 26 11050
2014-11-22 0 14 1 26 8358
2014-11-23 2 15 1 22 6229
2014-11-24 4 35 0 26 9487
2014-11-25 0 14 0 30 14490
2014-11-26 3 20 1 25 10319
2014-11-27 0 31 0 28 9632
2014-11-28 2 22 0 24 7672
2014-11-29 2 27 1 25 9524
2014-11-30 0 16 0 22 8049
Octobre 2014 45 928 8 58 364915
Septembre 2014 24 549 8 32 162413
2014-09-01 1 8 0 24 5910
2014-09-02 1 12 0 23 5619
2014-09-03 0 4 0 29 5993
2014-09-04 2 39 1 24 6382
2014-09-05 1 16 0 25 7071
2014-09-06 0 24 0 32 5116
2014-09-07 1 14 0 17 3343
2014-09-08 1 16 0 16 2841
2014-09-09 1 12 0 23 5898
2014-09-10 1 41 0 27 4745
2014-09-11 3 21 0 23 5234
2014-09-12 2 33 1 25 5243
2014-09-13 0 7 0 21 4951
2014-09-14 1 7 1 18 4734
2014-09-15 0 29 0 21 5744
2014-09-16 0 14 0 18 4638
2014-09-17 0 10 0 19 5146
2014-09-18 0 13 0 21 5364
2014-09-19 0 8 0 21 5709
2014-09-20 0 9 1 19 4470
2014-09-21 3 26 1 19 5891
2014-09-22 0 13 0 19 5025
2014-09-23 1 22 0 20 6398
2014-09-24 0 23 1 19 6006
2014-09-25 0 16 0 22 5732
2014-09-26 0 7 0 21 4404
2014-09-27 1 19 1 23 4732
2014-09-28 2 30 1 27 5640
2014-09-29 2 36 0 25 7160
2014-09-30 0 20 0 31 7274
Août 2014 17 251 4 27 191624
Juillet 2014 25 369 3 30 236312
Juin 2014 29 602 3 32 220918
Mai 2014 34 842 6 29 157174
Avril 2014 45 662 1 25 104486
Mars 2014 32 595 4 26 120439
Février 2014 24 660 5 28 102996
Janvier 2014 92 974 5 33 99419
* 2013 408 8887 76 89 1597727
Décembre 2013 36 785 2 79 132305
Novembre 2013 36 751 8 29 141119
Octobre 2013 37 683 10 26 116570
Septembre 2013 33 723 15 29 160779
Août 2013 20 356 4 30 113960
Juillet 2013 21 331 2 24 120164
2013-07-01 0 9 0 24 4330
2013-07-02 1 11 0 16 2693
2013-07-03 4 28 0 23 4775
2013-07-04 2 26 0 16 4174
2013-07-05 0 16 0 20 4074
2013-07-06 0 8 0 21 4135
2013-07-07 1 6 0 17 2726
2013-07-08 1 11 0 17 4747
2013-07-09 0 9 0 18 3831
2013-07-10 0 5 0 16 3040
2013-07-11 1 6 0 19 4713
2013-07-12 1 16 0 19 4099
2013-07-13 0 3 0 14 4400
2013-07-14 0 2 0 15 3941
2013-07-15 0 2 0 15 3367
2013-07-16 1 4 0 18 4261
2013-07-17 2 23 0 22 3788
2013-07-18 0 16 0 15 3415
2013-07-19 1 2 0 16 2111
2013-07-20 1 7 0 17 1889
2013-07-21 0 5 0 18 4035
2013-07-22 2 21 0 15 10438
2013-07-23 0 9 1 18 4311
2013-07-24 1 12 0 15 4353
2013-07-25 1 15 0 24 3021
2013-07-26 0 10 0 20 4122
2013-07-27 1 12 0 12 2914
2013-07-28 0 7 0 17 2977
2013-07-29 0 13 0 19 2352
2013-07-30 0 9 1 17 2615
2013-07-31 0 8 0 18 4517
Juin 2013 40 731 5 34 119512
Mai 2013 34 881 3 47 157484
Avril 2013 38 799 8 33 124279
2013-04-01 4 20 0 24 3359
2013-04-02 1 47 0 21 4467
2013-04-03 0 45 0 23 3233
2013-04-04 0 33 0 16 2834
2013-04-05 0 17 0 19 3016
2013-04-06 2 17 1 21 4302
2013-04-07 1 58 0 33 4201
2013-04-08 0 22 0 17 4107
2013-04-09 3 42 0 18 3737
2013-04-10 1 19 0 16 3054
2013-04-11 2 20 0 18 2700
2013-04-12 2 22 1 17 2910
2013-04-13 0 8 2 17 2288
2013-04-14 0 22 0 16 2273
2013-04-15 0 18 0 20 2553
2013-04-16 2 35 2 23 4161
2013-04-17 3 14 0 15 2830
2013-04-18 0 20 0 21 2765
2013-04-19 0 13 0 22 3929
2013-04-20 1 9 0 17 4630
2013-04-21 3 33 0 15 4446
2013-04-22 5 26 1 18 5097
2013-04-23 1 41 0 26 5957
2013-04-24 2 35 0 21 7277
2013-04-25 1 26 0 22 3866
2013-04-26 1 35 0 22 3466
2013-04-27 1 41 1 19 7601
2013-04-28 1 28 0 26 7931
2013-04-29 1 26 0 19 6992
2013-04-30 0 7 0 18 4297
Mars 2013 40 1111 9 62 147762
Février 2013 32 838 5 79 125299
Janvier 2013 41 898 5 89 138494
* 2012 446 10690 67 157 1274957
Décembre 2012 57 1411 4 45 150137
2012-12-01 3 30 0 17 8865
2012-12-02 0 39 0 29 12336
2012-12-03 1 44 0 36 10973
2012-12-04 1 36 0 25 8090
2012-12-05 4 63 1 18 4442
2012-12-06 3 55 0 22 3938
2012-12-07 1 57 0 20 4955
2012-12-08 1 21 0 36 3479
2012-12-09 2 28 0 18 3093
2012-12-10 2 73 0 19 5209
2012-12-11 0 64 0 17 4348
2012-12-12 2 32 0 16 3366
2012-12-13 1 48 0 20 3104
2012-12-14 1 41 0 20 3934
2012-12-15 0 9 0 16 2675
2012-12-16 6 94 1 23 4989
2012-12-17 2 90 1 24 5481
2012-12-18 4 48 1 45 5932
2012-12-19 3 94 0 19 4628
2012-12-20 2 61 0 38 4148
2012-12-21 2 83 0 33 4280
2012-12-22 1 17 0 18 3038
2012-12-23 1 25 0 21 2732
2012-12-24 0 19 0 17 5198
2012-12-25 1 20 0 16 2480
2012-12-26 1 11 0 20 2873
2012-12-27 4 56 0 20 4317
2012-12-28 3 33 0 20 2804
2012-12-29 3 36 0 21 4004
2012-12-30 0 54 0 24 4260
2012-12-31 2 30 0 23 6166
Novembre 2012 46 1137 8 25 112399
Octobre 2012 45 1068 7 25 80970
2012-10-01 4 36 0 16 2575
2012-10-02 0 19 0 16 2057
2012-10-03 1 21 0 14 1771
2012-10-04 1 15 0 25 2211
2012-10-05 1 6 0 16 1729
2012-10-06 0 3 0 14 1339
2012-10-07 1 25 1 13 1948
2012-10-08 0 43 0 14 3370
2012-10-09 1 36 0 21 2924
2012-10-10 2 46 0 17 2361
2012-10-11 1 54 0 17 3608
2012-10-12 0 22 0 16 1810
2012-10-13 3 37 1 14 2059
2012-10-14 2 57 1 21 2843
2012-10-15 2 67 0 18 2859
2012-10-16 0 35 0 17 2927
2012-10-17 2 68 0 23 3599
2012-10-18 1 42 1 20 2644
2012-10-19 1 60 0 15 2712
2012-10-20 1 18 1 15 2052
2012-10-21 6 55 1 14 2785
2012-10-22 2 43 0 16 2612
2012-10-23 1 35 0 20 2967
2012-10-24 1 22 0 16 2174
2012-10-25 0 23 0 14 2367
2012-10-26 0 25 0 13 2731
2012-10-27 0 4 0 13 2966
2012-10-28 3 43 1 19 4497
2012-10-29 1 31 0 22 3134
2012-10-30 5 43 0 17 2931
2012-10-31 2 34 0 20 2408
Septembre 2012 37 876 11 38 107023
Août 2012 30 595 5 41 95032
2012-08-01 1 10 0 13 3408
2012-08-02 0 21 0 19 2532
2012-08-03 0 19 0 15 2650
2012-08-04 0 3 0 14 1909
2012-08-05 0 5 0 12 1913
2012-08-06 1 18 1 15 2288
2012-08-07 0 13 0 15 2613
2012-08-08 2 12 0 13 3743
2012-08-09 1 27 0 14 3247
2012-08-10 0 14 0 41 3163
2012-08-11 2 20 1 20 2655
2012-08-12 0 22 0 13 2610
2012-08-13 2 54 1 18 3586
2012-08-14 1 22 0 15 3230
2012-08-15 1 15 0 15 2618
2012-08-16 3 23 0 14 3024
2012-08-17 0 7 0 19 3643
2012-08-18 0 4 0 14 2628
2012-08-19 3 17 0 16 3017
2012-08-20 2 20 0 14 3296
2012-08-21 0 12 1 16 3643
2012-08-22 2 14 0 18 3501
2012-08-23 0 26 0 17 3497
2012-08-24 0 14 0 15 3563
2012-08-25 0 23 0 16 3262
2012-08-26 2 15 0 14 3447
2012-08-27 1 23 0 13 3342
2012-08-28 1 4 0 17 2817
2012-08-29 2 22 0 20 3476
2012-08-30 2 67 1 18 3756
2012-08-31 1 29 0 29 2955
Juillet 2012 24 563 2 157 78638
Juin 2012 39 984 10 33 88620
Mai 2012 22 703 5 26 77701
Avril 2012 33 714 4 33 95151
2012-04-01 2 22 0 25 3938
2012-04-02 1 49 0 26 3936
2012-04-03 1 13 0 22 3955
2012-04-04 1 23 1 21 3616
2012-04-05 1 23 0 21 4026
2012-04-06 2 13 0 22 3297
2012-04-07 1 14 1 20 3117
2012-04-08 0 10 0 17 3082
2012-04-09 3 13 0 20 2799
2012-04-10 0 23 0 24 3521
2012-04-11 0 15 0 21 3174
2012-04-12 0 19 0 19 3154
2012-04-13 0 17 0 17 2926
2012-04-14 0 22 1 22 2797
2012-04-15 1 19 0 20 2363
2012-04-16 5 42 0 23 4103
2012-04-17 0 37 0 21 3144
2012-04-18 1 19 0 25 3996
2012-04-19 1 16 0 20 2869
2012-04-20 1 24 0 19 3018
2012-04-21 1 34 0 23 3678
2012-04-22 0 30 0 23 2720
2012-04-23 1 13 0 18 3576
2012-04-24 3 22 0 19 2798
2012-04-25 2 24 0 20 3296
2012-04-26 0 26 0 22 2713
2012-04-27 0 24 0 14 2406
2012-04-28 1 12 0 33 2172
2012-04-29 3 64 1 14 2564
2012-04-30 1 32 0 13 2397
Mars 2012 35 977 5 48 160160
Février 2012 34 704 5 33 117877
Janvier 2012 44 958 1 30 111249
* 2011 822 21877 118 48 1861895
Décembre 2011 68 1315 7 36 141929
Novembre 2011 94 1539 4 36 150015
Octobre 2011 81 1597 13 41 169207
Septembre 2011 96 1991 19 24 158540
Août 2011 68 1372 16 48 135201
Juillet 2011 57 1156 10 30 112626
2011-07-01 2 18 0 21 5455
2011-07-02 5 34 1 13 3807
2011-07-03 0 47 1 29 3624
2011-07-04 3 75 1 23 5753
2011-07-05 1 54 1 17 5269
2011-07-06 1 25 0 17 4105
2011-07-07 0 25 0 30 3217
2011-07-08 3 74 0 17 4521
2011-07-09 8 29 1 18 2897
2011-07-10 1 54 0 21 5965
2011-07-11 3 38 2 18 4473
2011-07-12 2 66 0 14 3417
2011-07-13 5 73 0 19 3850
2011-07-14 0 38 0 15 3112
2011-07-15 0 29 0 17 2768
2011-07-16 1 17 0 21 4404
2011-07-17 0 18 0 15 4901
2011-07-18 1 25 0 18 2740
2011-07-19 1 15 0 14 2640
2011-07-20 1 48 0 20 3211
2011-07-21 2 24 1 15 2768
2011-07-22 2 46 0 17 3321
2011-07-23 1 24 1 12 2352
2011-07-24 8 31 0 15 2544
2011-07-25 3 56 0 19 3247
2011-07-26 1 31 1 12 3398
2011-07-27 1 35 0 19 3127
2011-07-28 0 28 0 24 3297
2011-07-29 0 28 0 16 2641
2011-07-30 0 12 0 17 2551
2011-07-31 1 39 0 17 3251
Juin 2011 40 1214 6 31 149115
Mai 2011 64 1997 8 39 181997
2011-05-01 1 44 0 21 3800
2011-05-02 2 97 0 21 4247
2011-05-03 2 60 0 15 3949
2011-05-04 2 57 0 22 4174
2011-05-05 2 87 0 29 4101
2011-05-06 1 46 0 19 3293
2011-05-07 3 21 0 31 5860
2011-05-08 1 13 1 29 6061
2011-05-09 2 62 1 26 7057
2011-05-10 3 117 1 32 13635
2011-05-11 0 70 0 33 8213
2011-05-12 4 99 0 39 6910
2011-05-13 3 60 0 27 5773
2011-05-14 3 45 1 23 4456
2011-05-15 1 55 0 26 5530
2011-05-16 1 73 0 34 6924
2011-05-17 0 96 0 25 5617
2011-05-18 4 144 0 29 7640
2011-05-19 2 91 0 34 8906
2011-05-20 1 45 0 28 5778
2011-05-21 0 21 0 38 5753
2011-05-22 1 55 0 29 6481
2011-05-23 7 130 0 23 10799
2011-05-24 1 41 0 28 4569
2011-05-25 3 51 0 34 6528
2011-05-26 0 71 2 24 4490
2011-05-27 1 49 1 18 3249
2011-05-28 0 36 0 14 2868
2011-05-29 7 31 0 23 4945
2011-05-30 3 76 0 28 5514
2011-05-31 3 54 1 25 4877
Avril 2011 46 1637 9 38 176986
Mars 2011 54 2388 6 31 211307
2011-03-01 3 122 0 18 6680
2011-03-02 2 125 0 22 7771
2011-03-03 2 101 0 20 6758
2011-03-04 1 42 0 17 4167
2011-03-05 3 23 0 20 4811
2011-03-06 1 22 0 18 6699
2011-03-07 1 42 1 17 6565
2011-03-08 1 37 0 15 7116
2011-03-09 1 39 0 16 10831
2011-03-10 3 77 0 15 19804
2011-03-11 2 61 0 19 12773
2011-03-12 4 51 1 16 5555
2011-03-13 4 68 0 15 5274
2011-03-14 2 115 0 16 5003
2011-03-15 1 92 0 17 6428
2011-03-16 3 212 1 21 9712
2011-03-17 0 120 1 19 5516
2011-03-18 0 109 0 19 3950
2011-03-19 1 32 0 16 3488
2011-03-20 0 56 0 20 3576
2011-03-21 1 81 0 15 6916
2011-03-22 1 58 0 30 6314
2011-03-23 2 95 0 19 8455
2011-03-24 3 147 0 19 6592
2011-03-25 0 66 0 22 9114
2011-03-26 1 15 0 21 4424
2011-03-27 0 24 0 31 4299
2011-03-28 3 77 0 28 5137
2011-03-29 3 92 1 26 4709
2011-03-30 4 104 1 25 5221
2011-03-31 1 83 0 28 7649
Février 2011 59 2656 5 46 128248
Janvier 2011 95 3015 15 44 146724
2011-01-01 4 28 1 33 3209
2011-01-02 3 53 0 27 3194
2011-01-03 4 120 0 23 4999
2011-01-04 4 123 0 25 4781
2011-01-05 2 129 0 36 4810
2011-01-06 3 97 1 27 4554
2011-01-07 0 98 0 25 4909
2011-01-08 1 28 1 20 3049
2011-01-09 3 61 0 20 3543
2011-01-10 3 87 0 36 4897
2011-01-11 1 79 1 25 4007
2011-01-12 2 149 0 34 5515
2011-01-13 6 143 3 40 5584
2011-01-14 5 244 0 29 8061
2011-01-15 1 41 0 36 4401
2011-01-16 9 38 0 23 3832
2011-01-17 2 153 0 44 6302
2011-01-18 4 85 0 32 5425
2011-01-19 4 92 0 29 4997
2011-01-20 5 99 1 25 4295
2011-01-21 3 75 0 30 4089
2011-01-22 3 45 1 32 3479
2011-01-23 1 85 1 32 4851
2011-01-24 1 79 0 35 4531
2011-01-25 2 98 0 30 5112
2011-01-26 4 137 3 25 5274
2011-01-27 1 118 0 27 5128
2011-01-28 4 130 1 32 5328
2011-01-29 1 78 0 25 4103
2011-01-30 2 58 0 33 3935
2011-01-31 7 165 1 33 6530
* 2010 615 23079 70 91 1409620
Décembre 2010 54 2635 5 43 199984
2010-12-01 4 200 0 33 5797
2010-12-02 2 80 0 27 4428
2010-12-03 0 92 0 23 3768
2010-12-04 1 50 1 19 2892
2010-12-05 1 52 0 26 3390
2010-12-06 0 92 0 29 3863
2010-12-07 1 113 0 34 4176
2010-12-08 2 59 0 34 4663
2010-12-09 1 112 1 30 4738
2010-12-10 0 81 0 26 4475
2010-12-11 2 57 0 29 3894
2010-12-12 2 51 0 42 3962
2010-12-13 3 63 0 32 4381
2010-12-14 2 89 0 32 7458
2010-12-15 2 146 0 32 8138
2010-12-16 1 120 0 33 13324
2010-12-17 2 134 0 43 25752
2010-12-18 1 65 0 17 12634
2010-12-19 3 59 0 21 14562
2010-12-20 4 92 1 26 8417
2010-12-21 1 83 1 24 6202
2010-12-22 4 109 0 34 8319
2010-12-23 2 97 0 31 4509
2010-12-24 0 19 0 17 4671
2010-12-25 2 33 0 33 4728
2010-12-26 2 42 0 31 4717
2010-12-27 3 132 1 41 5593
2010-12-28 1 78 0 43 4517
2010-12-29 2 117 0 31 4767
2010-12-30 2 87 0 24 4387
2010-12-31 1 31 0 24 2862
Novembre 2010 59 2475 6 49 127779
Octobre 2010 56 2811 15 58 134942
Septembre 2010 53 1528 8 29 95249
Août 2010 32 1287 6 33 89617
Juillet 2010 34 1637 5 32 97290
Juin 2010 46 2137 3 28 109648
Mai 2010 50 1497 6 28 99050
Avril 2010 45 1888 3 26 102219
Mars 2010 53 1534 2 46 118201
Février 2010 65 1574 4 91 117274
Janvier 2010 68 2076 7 43 118367
* 2009 752 28223 96 159 970278
Décembre 2009 39 2001 5 54 122418
Novembre 2009 59 3138 6 38 117432
Octobre 2009 67 3218 11 18 122232
Septembre 2009 73 2730 14 159 92082
Août 2009 47 1405 8 15 61919
Juillet 2009 68 1737 11 21 67267
Juin 2009 63 2759 4 37 72789
Mai 2009 46 2166 6 16 66386
Avril 2009 101 2850 6 16 73303
Mars 2009 80 3538 7 17 83610
Février 2009 57 1586 6 16 50521
Janvier 2009 52 1095 12 10 40319
2009-01-01 2 21 0 5 768
2009-01-02 5 32 2 7 1486
2009-01-03 1 17 0 6 910
2009-01-04 0 22 0 9 1555
2009-01-05 0 28 0 7 972
2009-01-06 1 17 1 7 734
2009-01-07 4 49 0 7 1072
2009-01-08 1 33 0 8 1218
2009-01-09 1 36 0 7 1148
2009-01-10 1 19 0 9 1249
2009-01-11 2 35 0 8 1138
2009-01-12 1 21 2 8 1085
2009-01-13 1 22 0 9 926
2009-01-14 1 38 1 6 1577
2009-01-15 2 24 0 6 1142
2009-01-16 1 22 0 9 1101
2009-01-17 1 19 0 6 937
2009-01-18 1 19 0 8 1091
2009-01-19 0 8 1 7 864
2009-01-20 2 22 1 10 1014
2009-01-21 3 89 0 10 2235
2009-01-22 0 50 0 8 1433
2009-01-23 0 34 0 8 1281
2009-01-24 2 18 0 7 902
2009-01-25 5 71 2 9 2028
2009-01-26 1 85 0 10 2278
2009-01-27 4 48 1 8 1679
2009-01-28 3 72 0 8 1963
2009-01-29 3 63 0 8 1669
2009-01-30 1 38 0 9 1324
2009-01-31 2 23 1 9 1540
* 2008 334 4655 56 26 234055
Décembre 2008 36 663 7 12 28104
2008-12-01 3 30 0 10 1312
2008-12-02 0 30 0 7 1279
2008-12-03 3 41 0 12 1017
2008-12-04 2 33 0 7 1133
2008-12-05 2 40 1 7 1117
2008-12-06 0 7 0 5 831
2008-12-07 1 21 0 5 1053
2008-12-08 1 30 0 8 1116
2008-12-09 2 39 0 8 1045
2008-12-10 0 13 0 6 555
2008-12-11 1 29 2 8 1021
2008-12-12 0 29 1 9 1230
2008-12-13 2 32 0 11 1196
2008-12-14 3 17 1 8 973
2008-12-15 1 21 0 9 868
2008-12-16 3 51 1 9 1403
2008-12-17 0 19 1 7 950
2008-12-18 1 7 0 10 889
2008-12-19 0 26 0 8 1051
2008-12-20 2 19 0 8 964
2008-12-21 2 20 0 5 722
2008-12-22 0 10 0 5 689
2008-12-23 0 22 0 8 909
2008-12-24 0 8 0 4 427
2008-12-25 0 11 0 5 344
2008-12-26 2 17 0 6 566
2008-12-27 0 2 0 5 628
2008-12-28 1 8 0 5 684
2008-12-29 1 9 0 5 880
2008-12-30 1 8 0 5 575
2008-12-31 2 14 0 6 677
Novembre 2008 51 1090 9 10 35948
Octobre 2008 50 609 5 10 26582
Septembre 2008 40 619 5 10 24365
Août 2008 28 252 6 9 21916
2008-08-01 1 3 0 6 643
2008-08-02 1 7 1 4 575
2008-08-03 0 1 0 3 335
2008-08-04 1 9 0 8 348
2008-08-05 0 1 0 2 341
2008-08-06 1 6 0 5 362
2008-08-07 2 10 0 5 392
2008-08-08 0 5 0 3 492
2008-08-09 0 9 0 4 352
2008-08-10 0 5 0 4 379
2008-08-11 3 9 1 5 574
2008-08-12 1 10 0 9 785
2008-08-13 0 5 0 3 614
2008-08-14 0 6 0 3 300
2008-08-15 0 7 0 7 1149
2008-08-16 0 5 0 5 2200
2008-08-17 1 2 1 3 676
2008-08-18 2 12 0 6 505
2008-08-19 1 10 0 6 559
2008-08-20 0 16 0 4 441
2008-08-21 0 7 1 5 515
2008-08-22 6 27 0 6 789
2008-08-23 1 4 0 7 566
2008-08-24 1 3 0 5 765
2008-08-25 1 14 0 6 707
2008-08-26 0 7 0 8 778
2008-08-27 3 14 1 5 847
2008-08-28 0 6 0 5 701
2008-08-29 0 10 0 8 1349
2008-08-30 0 2 0 5 1714
2008-08-31 2 20 1 9 1163
Juillet 2008 20 256 5 7 16733
2008-07-01 1 11 0 5 499
2008-07-02 0 6 1 3 428
2008-07-03 1 15 0 7 504
2008-07-04 0 11 0 0 562
2008-07-05 0 3 1 5 416
2008-07-06 2 8 0 4 518
2008-07-07 0 6 0 5 766
2008-07-08 1 7 0 5 391
2008-07-09 2 18 0 5 586
2008-07-10 0 9 0 4 473
2008-07-11 0 5 0 0 440
2008-07-12 0 0 0 3 232
2008-07-13 0 2 0 2 270
2008-07-14 0 2 0 3 291
2008-07-15 2 10 0 4 395
2008-07-16 0 6 0 5 497
2008-07-17 1 12 0 4 772
2008-07-18 0 8 1 5 640
2008-07-19 1 6 0 4 328
2008-07-20 0 4 0 4 336
2008-07-21 1 12 1 5 586
2008-07-22 3 17 0 5 650
2008-07-23 0 9 0 4 678
2008-07-24 2 9 1 5 1046
2008-07-25 0 2 0 0 497
2008-07-26 0 4 0 5 493
2008-07-27 1 10 0 6 1290
2008-07-28 1 13 0 4 446
2008-07-29 0 11 0 3 514
2008-07-30 0 12 0 5 698
2008-07-31 1 8 0 0 491
Juin 2008 17 363 6 26 18903
Mai 2008 17 180 2 10 13320
Avril 2008 16 146 3 8 16063
2008-04-01 1 11 0 4 553
2008-04-02 0 4 0 7 503
2008-04-03 2 14 1 4 1518
2008-04-04 0 6 0 0 1184
2008-04-05 0 2 0 3 955
2008-04-06 1 4 0 4 680
2008-04-07 1 6 0 4 582
2008-04-08 0 6 0 4 448
2008-04-09 0 1 0 3 419
2008-04-10 1 1 0 5 432
2008-04-11 0 1 0 3 780
2008-04-12 0 4 0 5 909
2008-04-13 0 4 0 3 540
2008-04-14 0 3 1 0 516
2008-04-15 0 1 0 0 343
2008-04-16 0 3 0 0 602
2008-04-17 0 0 0 8 283
2008-04-18 0 1 0 0 415
2008-04-19 0 1 1 4 429
2008-04-20 2 3 0 4 410
2008-04-21 3 15 0 4 521
2008-04-22 0 14 0 6 672
2008-04-23 1 12 0 4 399
2008-04-24 0 3 0 4 350
2008-04-25 0 2 0 4 190
2008-04-26 2 4 0 5 229
2008-04-27 0 2 0 4 308
2008-04-28 0 1 0 4 265
2008-04-29 0 4 0 4 250
2008-04-30 2 13 0 5 378
Mars 2008 18 158 1 9 12835
Février 2008 19 155 2 9 9679
Janvier 2008 22 164 5 7 9607
2008-01-01 0 0 0 3 156
2008-01-02 1 6 0 3 272
2008-01-03 0 4 1 5 375
2008-01-04 0 10 0 5 389
2008-01-05 0 3 1 0 262
2008-01-06 0 3 0 7 269
2008-01-07 1 4 1 0 273
2008-01-08 1 5 0 4 363
2008-01-09 1 6 0 4 353
2008-01-10 2 18 0 4 470
2008-01-11 0 2 0 5 307
2008-01-12 0 0 0 2 173
2008-01-13 0 8 0 3 213
2008-01-14 0 5 0 6 311
2008-01-15 0 4 0 4 276
2008-01-16 0 3 0 4 283
2008-01-17 1 4 0 5 318
2008-01-18 0 7 0 5 340
2008-01-19 1 4 0 5 253
2008-01-20 0 2 1 4 270
2008-01-21 0 4 0 5 319
2008-01-22 2 2 0 0 196
2008-01-23 1 3 0 3 205
2008-01-24 0 6 0 4 222
2008-01-25 0 4 0 4 317
2008-01-26 0 2 0 4 258
2008-01-27 2 4 0 5 300
2008-01-28 4 13 1 5 640
2008-01-29 2 13 0 5 449
2008-01-30 2 9 0 0 384
2008-01-31 1 6 0 4 391
* 2007 276 2246 55 9 102999
Décembre 2007 21 167 5 8 17081
Novembre 2007 20 168 3 6 8467
2007-11-01 0 5 1 2 280
2007-11-02 1 6 0 4 251
2007-11-03 2 8 0 4 329
2007-11-04 1 2 0 5 308
2007-11-05 2 15 0 0 391
2007-11-06 1 2 0 6 298
2007-11-07 1 5 0 0 259
2007-11-08 0 5 0 4 263
2007-11-09 0 7 0 4 188
2007-11-10 0 4 0 2 164
2007-11-11 0 2 0 0 198
2007-11-12 0 6 0 4 191
2007-11-13 0 0 0 0 201
2007-11-14 1 5 0 0 202
2007-11-15 1 2 0 3 263
2007-11-16 1 6 0 4 383
2007-11-17 0 4 0 3 239
2007-11-18 0 4 1 4 290
2007-11-19 0 6 0 0 190
2007-11-20 0 6 0 3 271
2007-11-21 1 7 0 4 287
2007-11-22 2 11 0 4 294
2007-11-23 0 8 1 5 508
2007-11-24 2 6 0 3 376
2007-11-25 0 3 0 2 239
2007-11-26 1 6 0 3 283
2007-11-27 0 5 0 5 349
2007-11-28 1 2 0 4 242
2007-11-29 1 6 0 4 278
2007-11-30 1 14 0 0 452
Octobre 2007 21 147 4 5 8193
2007-10-01 3 12 0 3 329
2007-10-02 0 6 0 4 319
2007-10-03 0 3 0 4 296
2007-10-04 2 10 0 3 310
2007-10-05 0 4 0 4 289
2007-10-06 0 0 0 3 208
2007-10-07 1 2 0 5 203
2007-10-08 1 9 1 4 335
2007-10-09 1 3 0 0 267
2007-10-10 1 7 1 3 300
2007-10-11 0 3 0 4 241
2007-10-12 0 2 0 5 251
2007-10-13 1 3 0 3 247
2007-10-14 0 0 0 3 152
2007-10-15 1 3 0 4 225
2007-10-16 0 2 0 2 145
2007-10-17 3 14 0 5 384
2007-10-18 1 5 0 0 378
2007-10-19 1 3 0 0 261
2007-10-20 0 2 0 3 226
2007-10-21 0 7 0 5 265
2007-10-22 0 0 0 3 197
2007-10-23 0 0 0 0 211
2007-10-24 1 2 0 3 164
2007-10-25 0 0 0 4 162
2007-10-26 1 2 0 4 138
2007-10-27 0 0 0 2 243
2007-10-28 2 3 1 4 239
2007-10-29 0 5 0 3 225
2007-10-30 1 20 1 5 587
2007-10-31 0 15 0 0 396
Septembre 2007 22 183 4 9 9896
2007-09-01 1 6 0 4 255
2007-09-02 1 7 1 3 302
2007-09-03 2 13 0 5 572
2007-09-04 1 15 1 9 508
2007-09-05 1 4 1 7 396
2007-09-06 1 23 0 6 618
2007-09-07 1 9 1 0 426
2007-09-08 0 5 0 4 308
2007-09-09 0 2 0 5 280
2007-09-10 1 8 0 0 334
2007-09-11 5 17 0 6 584
2007-09-12 0 3 0 7 335
2007-09-13 0 2 0 8 430
2007-09-14 0 3 0 3 253
2007-09-15 0 1 0 2 169
2007-09-16 0 0 0 3 139
2007-09-17 0 3 0 4 258
2007-09-18 0 1 0 5 289
2007-09-19 1 8 0 4 366
2007-09-20 1 4 0 3 258
2007-09-21 1 5 0 3 285
2007-09-22 0 5 0 7 259
2007-09-23 1 2 0 3 272
2007-09-24 0 8 0 4 304
2007-09-25 1 3 0 3 367
2007-09-26 1 5 0 4 246
2007-09-27 0 2 0 4 261
2007-09-28 0 4 0 4 291
2007-09-29 2 11 0 4 373
2007-09-30 0 4 0 0 158
Août 2007 23 226 2 6 9096
Juillet 2007 18 127 1 4 10165
Juin 2007 25 309 2 6 13196
Mai 2007 30 315 8 7 11830
Avril 2007 44 428 13 9 13382
Mars 2007 52 176 13 4 1693